Flag for U.S.A. Weather past 2 weeks in Peoria, Illinois, U.S.A.

Now
63 °F

Clear.


Feels Like: 63 °F
Forecast: 59 / 79 °F
Wind: 5 mph from South

Location: Greater Peoria Regional Airport

Current Time: Aug 28, 2015 at 8:07:21 AM

Latest Report: Aug 28, 2015 at 6:54 AM


Visibility: 7 mi

Pressure: 30.11 "Hg

Humidity: 84%

Dew point: 58 °F

Location of PeoriaLocation

Historic Weather in Peoria — Graph

°F

Peoria temperature yesterday

Maximum temperature yesterday: 77 °F (at 2:54 PM)
Minimum temperature yesterday: 55 °F (at 5:54 AM)
Average temperature yesterday: 66 °F

Past Weeks' High & Low Weather Summary

 TemperatureHumidityPressure
High91 °F (Aug 15, 2:54 PM)93% (Aug 26, 6:54 AM)30.20 "Hg (Aug 26, 6:54 AM)
Low55 °F (Aug 25, 5:54 AM)33% (Aug 24, 3:54 PM)29.64 "Hg (Aug 19, 3:54 AM)
Average72 °F67%30.01 "Hg
* Reported Aug 13 6:54 AM — Aug 28 6:54 AM, Peoria, Weather by CustomWeather, © 2015

Note: Actual official high and low records may vary slightly from our data, if they occured in-between our weather recording intervals... More about our weather records

Advertising

Peoria weather history for previous 24 hours

 ConditionsComfort  
Time TempWeatherWind HumidityBarometerVisibility
6:54 AM
Fri, Aug 28
63 °FClear.5 mph84%30.11 "Hg7 mi
5:54 AM62 °FClear.3 mph83%30.09 "Hg10 mi
4:54 AM63 °FClear.No wind81%30.09 "Hg10 mi
3:54 AM64 °FClear.6 mph81%30.09 "Hg10 mi
2:54 AM66 °FClear.3 mph75%30.09 "Hg10 mi
1:54 AM65 °FClear.6 mph81%30.09 "Hg10 mi
12:54 AM64 °FClear.5 mph81%30.11 "Hg10 mi
11:54 PM
Thu, Aug 27
65 °FClear.6 mph78%30.09 "Hg10 mi
10:54 PM64 °FClear.5 mph78%30.10 "Hg10 mi
9:54 PM65 °FClear.No wind78%30.11 "Hg10 mi
8:54 PM66 °FClear.No wind75%30.11 "Hg10 mi
7:54 PM70 °FSunny.3 mph64%30.08 "Hg10 mi
6:54 PM74 °FSunny.5 mph56%30.08 "Hg10 mi
5:54 PM76 °FSunny.3 mph52%30.10 "Hg10 mi
4:54 PM75 °FSunny.3 mph54%30.11 "Hg10 mi
3:54 PM76 °FSunny.3 mph50%30.12 "Hg10 mi
2:54 PM77 °FSunny.6 mph48%30.15 "Hg10 mi
1:54 PM75 °FSunny.5 mph52%30.15 "Hg10 mi
12:54 PM74 °FSunny.3 mph53%30.18 "Hg10 mi
11:54 AM73 °FSunny.No wind53%30.19 "Hg10 mi
10:54 AM70 °FSunny.3 mph57%30.17 "Hg10 mi
9:54 AM67 °FSunny.3 mph63%30.18 "Hg10 mi
8:54 AM64 °FSunny.6 mph70%30.19 "Hg10 mi
Weather by CustomWeather, © 2015

See weather overviewHow to use our weather pages